Date String (YYYY-MM-DD hh:mm:ss) UTC,Instrument flags,Ambient pressure (hPa),Sample flow (lpm),Bypass flow (lpm),Sample temperature (°C),Ambient temperature (°C),ASC tube jacket temperature (°C),LED temperature (°C),Box temperature (°C),Sample RH (%),Span deviation,Mass concentration (μg/m³),Mass concentration (μg/m³),Mass concentration (μg/m³)
DateTimeUTC,F1_M11,P_M11,Q1_M11,Q2_M11,T1_M11,T2_M11,T3_M11,T4_M11,T5_M11,U1_M11,ZSPAN_M11,X2_M11,X0_M11,X1_M11
2022-11-27 08:00:00,,0823.0,5.00,0.00,26.0,24.5,00.0,35.0,27.9,16.8,0000.0,0002.29,0003.90,0001.75
2022-11-27 08:01:00,,0823.0,5.00,0.00,26.0,24.5,00.0,35.0,27.9,16.8,0000.0,0002.31,0003.98,0001.76
2022-11-27 08:02:00,,0823.0,5.00,0.00,26.0,24.5,00.0,35.0,27.9,16.8,0000.0,0002.34,0004.29,0001.78
2022-11-27 08:03:00,,0823.0,5.00,0.00,26.0,24.5,00.0,35.0,27.9,16.9,0000.0,0002.32,0004.20,0001.78
2022-11-27 08:04:00,,0822.9,4.99,0.00,26.0,24.5,00.0,35.0,27.9,16.9,0000.0,0002.27,0004.08,0001.79
2022-11-27 08:05:00,,0823.0,5.00,0.00,26.0,24.5,00.0,35.0,27.9,16.9,0000.0,0002.29,0004.09,0001.80
2022-11-27 08:06:00,,0822.9,5.01,0.00,26.0,24.4,00.0,34.9,27.8,16.9,0000.0,0002.31,0004.12,0001.82
2022-11-27 08:07:00,,0823.0,5.01,0.00,26.0,24.4,00.0,34.9,27.8,16.9,0000.0,0002.29,0004.07,0001.82
2022-11-27 08:08:00,,0822.9,5.00,0.00,26.0,24.4,00.0,34.9,27.8,17.0,0000.0,0002.31,0003.82,0001.82
2022-11-27 08:09:00,,0823.0,4.99,0.00,26.0,24.4,00.0,34.9,27.9,17.0,0000.0,0002.32,0003.85,0001.83
2022-11-27 08:10:00,,0822.9,4.99,0.00,26.0,24.4,00.0,34.9,27.9,17.0,0000.0,0002.28,0003.79,0001.84
2022-11-27 08:11:00,,0822.9,5.00,0.00,26.0,24.4,00.0,34.9,27.8,17.0,0000.0,0002.26,0003.81,0001.84
2022-11-27 08:12:00,,0823.0,4.99,0.00,25.9,24.4,00.0,34.9,27.8,17.0,0000.0,0002.29,0003.85,0001.84
2022-11-27 08:13:00,,0823.0,5.00,0.00,25.9,24.4,00.0,34.9,27.8,17.0,0000.0,0002.29,0004.68,0001.84
2022-11-27 08:14:00,,0823.0,5.02,0.00,25.9,24.4,00.0,34.9,27.8,17.0,0000.0,0002.30,0005.04,0001.86
2022-11-27 08:15:00,,0823.0,5.00,0.00,25.9,24.4,00.0,34.9,27.8,17.0,0000.0,0002.33,0005.10,0001.87
2022-11-27 08:16:00,,0823.0,4.99,0.00,25.9,24.4,00.0,34.9,27.8,17.1,0000.0,0002.29,0005.22,0001.87
2022-11-27 08:17:00,,0823.0,5.00,0.00,25.9,24.4,00.0,34.9,27.8,17.1,0000.0,0002.25,0005.96,0001.86
2022-11-27 08:18:00,,0823.0,5.00,0.00,25.9,24.4,00.0,34.9,27.8,17.1,0000.0,0002.35,0006.27,0001.88
2022-11-27 08:19:00,,0823.0,5.00,0.00,25.9,24.4,00.0,34.9,27.8,17.1,0000.0,0002.34,0006.46,0001.89
2022-11-27 08:20:00,,0823.0,5.00,0.00,25.9,24.3,00.0,34.9,27.8,17.1,0000.0,0002.34,0006.43,0001.90
2022-11-27 08:21:00,,0823.0,4.99,0.00,25.9,24.3,00.0,34.9,27.8,17.1,0000.0,0002.36,0006.52,0001.90
2022-11-27 08:22:00,,0822.9,5.00,0.00,25.9,24.3,00.0,34.9,27.7,17.1,0000.0,0002.34,0006.49,0001.90
2022-11-27 08:23:00,,0823.0,5.00,0.00,25.9,24.3,00.0,34.8,27.7,17.1,0000.0,0002.31,0006.33,0001.90
2022-11-27 08:24:00,,0822.9,5.00,0.00,25.9,24.3,00.0,34.8,27.8,17.1,0000.0,0002.32,0005.57,0001.91
2022-11-27 08:25:00,,0823.3,5.01,0.00,25.8,24.3,00.0,34.8,27.7,17.1,0000.0,0002.33,0004.98,0001.91
2022-11-27 08:26:00,,0822.9,5.01,0.00,25.8,24.3,00.0,34.8,27.7,17.1,0000.0,0002.34,0005.33,0001.90
2022-11-27 08:27:00,,0823.0,5.00,0.00,25.8,24.3,00.0,34.8,27.7,17.2,0000.0,0002.35,0005.32,0001.92
2022-11-27 08:28:00,,0822.9,4.99,0.00,25.8,24.3,00.0,34.8,27.7,17.2,0000.0,0002.38,0004.40,0001.93
2022-11-27 08:29:00,,0822.9,4.99,0.00,25.8,24.3,00.0,34.8,27.7,17.2,0000.0,0002.38,0004.33,0001.94
2022-11-27 08:30:00,,0823.0,5.00,0.00,25.8,24.3,00.0,34.8,27.7,17.2,0000.0,0002.41,0004.07,0001.96
2022-11-27 08:31:00,,0822.9,4.99,0.00,25.8,24.3,00.0,34.8,27.7,17.2,0000.0,0002.43,0004.16,0001.98
2022-11-27 08:32:00,,0822.9,5.00,0.00,25.8,24.3,00.0,34.8,27.7,17.2,0000.0,0002.42,0004.10,0002.00
2022-11-27 08:33:00,,0822.9,5.02,0.00,25.8,24.3,00.0,34.8,27.7,17.2,0000.0,0002.43,0003.95,0002.01
2022-11-27 08:34:00,,0822.9,4.99,0.00,25.8,24.2,00.0,34.8,27.7,17.2,0000.0,0002.46,0004.68,0002.03
2022-11-27 08:35:00,,0823.0,5.00,0.00,25.8,24.2,00.0,34.8,27.6,17.2,0000.0,0002.47,0004.89,0002.05
2022-11-27 08:36:00,,0823.0,5.00,0.00,25.8,24.2,00.0,34.8,27.7,17.2,0000.0,0002.48,0004.87,0002.07
2022-11-27 08:37:00,,0822.9,5.00,0.00,25.8,24.2,00.0,34.8,27.7,17.2,0000.0,0002.52,0004.83,0002.10
2022-11-27 08:38:00,,0823.0,5.00,0.00,25.8,24.2,00.0,34.8,27.7,17.2,0000.0,0002.55,0004.83,0002.10
2022-11-27 08:39:00,,0823.0,5.01,0.00,25.7,24.2,00.0,34.7,27.6,17.2,0000.0,0002.54,0004.88,0002.11
2022-11-27 08:40:00,,0823.0,4.99,0.00,25.7,24.2,00.0,34.7,27.6,17.3,0000.0,0002.46,0004.73,0002.11
2022-11-27 08:41:00,,0823.0,5.00,0.00,25.7,24.2,00.0,34.7,27.6,17.3,0000.0,0002.43,0004.69,0002.10
2022-11-27 08:42:00,,0823.0,4.99,0.00,25.7,24.2,00.0,34.7,27.6,17.3,0000.0,0002.40,0004.55,0002.09
2022-11-27 08:43:00,,0822.9,4.99,0.00,25.7,24.2,00.0,34.7,27.6,17.3,0000.0,0002.42,0004.58,0002.10
2022-11-27 08:44:00,,0822.9,5.00,0.00,25.7,24.2,00.0,34.7,27.6,17.3,0000.0,0002.46,0004.67,0002.12
2022-11-27 08:45:00,,0822.9,4.99,0.00,25.7,24.2,00.0,34.7,27.6,17.3,0000.0,0002.47,0004.00,0002.14
2022-11-27 08:46:00,,0823.0,5.02,0.00,25.7,24.2,00.0,34.7,27.6,17.3,0000.0,0002.49,0003.82,0002.15
2022-11-27 08:47:00,,0822.9,5.00,0.00,25.7,24.2,00.0,34.7,27.6,17.3,0000.0,0002.49,0003.79,0002.15
2022-11-27 08:48:00,,0823.0,5.00,0.00,25.7,24.2,00.0,34.7,27.6,17.4,0000.0,0002.46,0004.14,0002.15
2022-11-27 08:49:00,,0823.0,5.00,0.00,25.7,24.2,00.0,34.7,27.6,17.4,0000.0,0002.48,0004.16,0002.17
2022-11-27 08:50:00,,0822.9,5.00,0.00,25.7,24.2,00.0,34.7,27.6,17.4,0000.0,0002.51,0004.46,0002.19
2022-11-27 08:51:00,,0822.9,5.00,0.00,25.7,24.2,00.0,34.7,27.6,17.4,0000.0,0002.55,0004.58,0002.20
2022-11-27 08:52:00,,0822.9,5.00,0.00,25.7,24.2,00.0,34.7,27.6,17.4,0000.0,0002.57,0004.74,0002.21
2022-11-27 08:53:00,,0823.0,5.00,0.00,25.7,24.2,00.0,34.7,27.6,17.4,0000.0,0002.61,0004.86,0002.25
2022-11-27 08:54:00,,0822.9,5.00,0.00,25.7,24.1,00.0,34.6,27.6,17.4,0000.0,0002.65,0004.99,0002.26
2022-11-27 08:55:00,,0822.9,5.00,0.00,25.6,24.1,00.0,34.6,27.5,17.4,0000.0,0002.67,0005.10,0002.26
2022-11-27 08:56:00,,0823.0,5.00,0.00,25.6,24.1,00.0,34.6,27.5,17.4,0000.0,0002.68,0005.14,0002.26
2022-11-27 08:57:00,,0823.0,5.00,0.00,25.6,24.1,00.0,34.6,27.5,17.4,0000.0,0002.65,0005.29,0002.26
2022-11-27 08:58:00,,0823.0,5.00,0.00,25.6,24.1,00.0,34.6,27.6,17.5,0000.0,0002.66,0005.32,0002.27
2022-11-27 08:59:00,,0822.9,5.00,0.00,25.6,24.1,00.0,34.6,27.5,17.5,0000.0,0002.66,0004.77,0002.28
